[[{"header":{"parameterUnit":"m.s-1","parameterCategory":1,"la1":30.2991,"la2":30.254,"lo1":-89.0895,"lo2":-89.0444,"dy":0.0017,"dx":0.0017,"nx":28,"ny":28,"refTime":"2024-07-26T03:00:00:Z","depth":0,"parameterNumber":2,"parameterNumberName":"U-component_of_WINDS"},"data":[0,0,0,0,0,0,0,0,0,0,0,0,0,0,0,0,0,0,0,0,0,0,0,0,0,0,0,0,0,0,0,0,0,0,0,0,0,0,0,0,0,0,0,0,0,0,0,0,0,0,0,0,0,0,0,0,0,0,-0.5219,-0.5218,0,-0.5139,-0.5138,-0.5137,-0.5098,-0.5098,-0.5098,-0.5098,-0.5016,-0.5014,-0.5012,0,0,0,0,0,0,0,0,0,0,0,0,0,-0.5339,-0.5337,-0.5219,-0.5218,-0.5217,-0.5139,-0.5138,-0.5137,-0.5098,-0.5098,-0.5098,-0.5098,-0.5017,-0.5014,-0.5012,0,0,0,0,0,0,0,0,0,0,0,0,0,-0.5276,-0.5336,-0.5219,-0.5188,-0.5185,-0.5139,-0.5138,-0.5137,-0.5098,-0.5098,-0.5098,-0.5098,-0.5018,-0.5014,-0.5011,-0.4991,0,0,-0.5001,-0.5,0,0,0,0,0,0,0,0,-0.5279,-0.5271,-0.5194,-0.519,-0.5186,-0.5128,-0.515,-0.5088,-0.5098,-0.5131,-0.5098,-0.5098,-0.5053,-0.5047,-0.5032,-0.4987,-0.4984,-0.5001,-0.4999,-0.4998,-0.4997,0,0,0,0,0,0,0,-0.5284,-0.5274,-0.5187,-0.5193,-0.5188,-0.5178,-0.517,-0.5138,-0.5093,-0.5128,-0.5125,-0.5116,-0.5051,-0.5036,-0.503,-0.4982,-0.5001,-0.4998,-0.4996,-0.4995,-0.4917,-0.4917,0,0,0,0,0,0,-0.5293,-0.5278,-0.519,-0.5185,-0.5234,-0.5176,-0.5166,-0.5147,-0.5093,-0.5085,-0.5116,-0.5114,-0.5041,-0.5034,-0.5027,-0.5,-0.4998,-0.4995,-0.4993,-0.4917,-0.4917,-0.4917,0,0,0,0,0,0,-0.5296,-0.5286,-0.5193,-0.5231,-0.5218,-0.5174,-0.5153,-0.5145,-0.5129,-0.5084,-0.5076,-0.5108,-0.5041,-0.5032,-0.5,-0.4996,-0.4993,-0.499,-0.4917,-0.4917,-0.4917,-0.4945,0,0,0,0,0,0,-0.5299,-0.5287,-0.5278,-0.5231,-0.5217,-0.5168,-0.5153,-0.5144,-0.5124,-0.5121,-0.5075,-0.5067,-0.504,-0.5005,-0.4997,-0.4992,-0.4988,-0.4917,-0.4917,-0.4917,-0.4944,-0.4946,-0.4947,0,0,0,0,0,-0.5304,-0.529,-0.5278,-0.5268,-0.5205,-0.5168,-0.5159,-0.5129,-0.5124,-0.5115,-0.5086,-0.5068,-0.4998,-0.5002,-0.4993,-0.4986,-0.4917,-0.4917,-0.4917,-0.4944,-0.4946,-0.4947,0,0,0,0,0,0,-0.5338,-0.5283,-0.5269,-0.5239,-0.5208,-0.5161,-0.5149,-0.5132,-0.5101,-0.51,-0.5063,-0.5053,-0.5025,-0.5003,-0.5008,-0.4964,-0.4956,-0.4954,-0.498,-0.4981,-0.4983,-0.4989,-0.4985,0,0,0,0,0,-0.5342,-0.5315,-0.5269,-0.5247,-0.5232,-0.5193,-0.5176,-0.5155,-0.5121,-0.5108,-0.5077,-0.5045,-0.5016,-0.4997,-0.4968,-0.4941,-0.493,-0.4932,-0.4933,-0.4935,-0.4933,-0.4918,-0.4918,-0.4916,-0.4916,-0.4916,0,0,-0.5349,-0.5316,-0.5302,-0.5253,-0.5226,-0.5201,-0.5183,-0.5156,-0.5136,-0.5104,-0.5072,-0.5049,-0.5011,-0.4982,-0.4967,-0.4962,-0.4932,-0.4935,-0.4936,-0.4934,-0.4917,-0.4918,-0.4918,-0.4916,-0.4916,-0.4916,0,0,-0.5351,-0.5323,-0.5301,-0.5275,-0.5236,-0.521,-0.5205,-0.516,-0.5143,-0.5111,-0.5086,-0.5063,-0.5013,-0.4987,-0.4967,-0.4959,-0.4942,-0.4951,-0.4959,-0.4944,-0.4944,-0.4944,-0.4941,-0.4941,-0.495,-0.495,-0.495,0,-0.5365,-0.5325,-0.5293,-0.5267,-0.5247,-0.5216,-0.5195,-0.5171,-0.5124,-0.511,-0.5105,-0.5043,-0.5015,-0.4979,-0.4978,-0.4963,-0.4956,-0.4956,-0.4947,-0.4946,-0.4946,-0.4943,-0.4942,-0.4951,-0.4951,-0.4951,-0.4951,0,-0.5345,-0.5318,-0.5305,-0.5261,-0.5238,-0.5215,-0.518,-0.5161,-0.5142,-0.5118,-0.5085,-0.5051,-0.5015,-0.5005,-0.4986,-0.4967,-0.4965,-0.4954,-0.4945,-0.4948,-0.4944,-0.4943,-0.4953,-0.4952,-0.4952,-0.4952,0,0,-0.5365,-0.5303,-0.5299,-0.5278,-0.5232,-0.5211,-0.5186,-0.515,-0.5135,-0.5104,-0.5083,-0.5042,-0.5031,-0.5009,-0.4987,-0.4974,-0.497,-0.4965,-0.4963,-0.4967,-0.4947,-0.4956,-0.4955,-0.4959,-0.4958,-0.4958,-0.495,0,-0.536,-0.5314,-0.5285,-0.5251,-0.5225,-0.5196,-0.5175,-0.5145,-0.5121,-0.5096,-0.507,-0.5041,-0.503,-0.5016,-0.5002,-0.4974,-0.4966,-0.4974,-0.4938,-0.4938,-0.4949,-0.4953,-0.4962,-0.4956,-0.4949,-0.4948,-0.4948,0,-0.5347,-0.5317,-0.528,-0.5238,-0.5226,-0.5207,-0.5172,-0.5148,-0.5114,-0.5097,-0.5073,-0.5051,-0.5024,-0.5018,-0.4981,-0.4987,-0.4971,-0.4955,-0.4954,-0.4949,-0.4943,-0.4948,-0.4953,-0.4952,-0.4946,-0.4946,-0.4946,0,-0.5365,-0.5315,-0.5287,-0.527,-0.5219,-0.5207,-0.5186,-0.5151,-0.5131,-0.5101,-0.5088,-0.5055,-0.5037,-0.5012,-0.4981,-0.498,-0.4947,-0.4938,-0.4933,-0.4934,-0.4927,-0.4928,-0.493,-0.4917,-0.4917,-0.4917,-0.4917,0,-0.5362,-0.5341,-0.5294,-0.5277,-0.5253,-0.5219,-0.5196,-0.5172,-0.5142,-0.5119,-0.5093,-0.5073,-0.5034,-0.5009,-0.4985,-0.4958,-0.495,-0.4936,-0.493,-0.4939,-0.494,-0.4927,-0.4927,-0.4917,-0.4917,-0.4917,-0.4917,0,-0.5378,-0.5346,-0.5313,-0.5268,-0.5256,-0.524,-0.5202,-0.5184,-0.5159,-0.5132,-0.5123,-0.5084,-0.5053,-0.5021,-0.4979,-0.4963,-0.4937,-0.4929,-0.4949,-0.4946,-0.4942,-0.4943,-0.4935,-0.4933,-0.4922,-0.4923,-0.4923,0,-0.5378,-0.5361,-0.5314,-0.5298,-0.5277,-0.525,-0.523,-0.5197,-0.5177,-0.5136,-0.5124,-0.5091,-0.5063,-0.5016,-0.4984,-0.4952,-0.4942,-0.4942,-0.4937,-0.4946,-0.4942,-0.4944,-0.4942,-0.4943,-0.4943,-0.4944,-0.4944,0,-0.5382,-0.5367,-0.5339,-0.5305,-0.5282,-0.5254,-0.5226,-0.5213,-0.5174,-0.5154,-0.5122,-0.5101,-0.5058,-0.5026,-0.4991,-0.4969,-0.495,-0.4946,-0.4943,-0.4951,-0.4963,-0.4957,-0.4953,-0.4946,-0.4946,-0.4946,-0.4945,-0.4945,-0.539,-0.5373,-0.5338,-0.5308,-0.5283,-0.5257,-0.5238,-0.5211,-0.5184,-0.5146,-0.5129,-0.5097,-0.5063,-0.5013,-0.4992,-0.4967,-0.4961,-0.4957,-0.4956,-0.4955,-0.4958,-0.4968,-0.496,-0.496,-0.496,-0.496,-0.496,0,-0.5392,-0.5368,-0.5341,-0.5301,-0.5278,-0.5262,-0.5229,-0.5211,-0.5183,-0.5153,-0.5127,-0.5091,-0.506,-0.5025,-0.4992,-0.4979,-0.497,-0.4972,-0.4972,-0.4967,-0.4964,-0.497,-0.498,-0.498,-0.498,-0.498,-0.498,-0.498,-0.539,-0.5362,-0.5343,-0.5302,-0.5278,-0.5247,-0.523,-0.5206,-0.5182,-0.5143,-0.5117,-0.5095,-0.5063,-0.5028,-0.4999,-0.4989,-0.4978,-0.4983,-0.4971,-0.4969,-0.4968,-0.4966,-0.4971,-0.4981,-0.4981,-0.4976,-0.4976,-0.4976]},{"header":{"parameterUnit":"m.s-1","parameterCategory":1,"la1":30.2991,"la2":30.254,"lo1":-89.0895,"lo2":-89.0444,"dy":0.0017,"dx":0.0017,"nx":28,"ny":28,"refTime":"2024-07-26T03:00:00:Z","depth":0,"parameterNumber":3,"parameterNumberName":"V-component_of_WINDS"},"data":[0,0,0,0,0,0,0,0,0,0,0,0,0,0,0,0,0,0,0,0,0,0,0,0,0,0,0,0,0,0,0,0,0,0,0,0,0,0,0,0,0,0,0,0,0,0,0,0,0,0,0,0,0,0,0,0,0,0,2.9023,2.9022,0,2.9006,2.9005,2.9005,2.8974,2.8974,2.8973,2.8973,2.8956,2.8956,2.8956,0,0,0,0,0,0,0,0,0,0,0,0,0,2.9029,2.9029,2.9023,2.9022,2.9022,2.9006,2.9005,2.9005,2.8975,2.8974,2.8973,2.8972,2.8956,2.8956,2.8956,0,0,0,0,0,0,0,0,0,0,0,0,0,2.9021,2.9029,2.9023,2.9005,2.9003,2.9006,2.9005,2.9005,2.8975,2.8974,2.8973,2.8972,2.8956,2.8956,2.8956,2.8975,0,0,2.8957,2.8957,0,0,0,0,0,0,0,0,2.9021,2.9021,2.9008,2.9006,2.9004,2.8991,2.9001,2.8995,2.8975,2.8986,2.8973,2.8972,2.8968,2.8967,2.8966,2.8974,2.8973,2.8957,2.8957,2.8957,2.8957,0,0,0,0,0,0,0,2.9022,2.9021,2.9016,2.9008,2.9005,2.8998,2.8996,2.9,2.8982,2.8985,2.8982,2.8981,2.8967,2.8966,2.8966,2.8973,2.8957,2.8957,2.8957,2.8957,2.8995,2.8996,0,0,0,0,0,0,2.9025,2.9022,2.9016,2.9015,2.9011,2.8999,2.8996,2.8996,2.8982,2.8979,2.8981,2.8979,2.8966,2.8965,2.8965,2.8986,2.8957,2.8957,2.8957,2.8994,2.8995,2.8996,0,0,0,0,0,0,2.9025,2.9025,2.9017,2.9018,2.9016,2.8999,2.9,2.8996,2.8995,2.898,2.8976,2.8984,2.8966,2.8965,2.8972,2.8985,2.8957,2.8957,2.8993,2.8995,2.8996,2.9027,0,0,0,0,0,0,2.9026,2.9025,2.9032,2.9018,2.9016,2.9025,2.9001,2.8997,2.8995,2.8993,2.8981,2.8978,2.8965,2.8972,2.8973,2.8984,2.8957,2.8992,2.8994,2.8995,2.9025,2.903,2.9033,0,0,0,0,0,2.9026,2.9041,2.9032,2.9032,2.9024,2.9026,2.9024,2.9009,2.8997,2.9003,2.8993,2.8978,2.8983,2.8973,2.8973,2.8985,2.8991,2.8993,2.8995,2.9023,2.9029,2.9033,0,0,0,0,0,0,2.9057,2.9039,2.9029,2.904,2.9035,2.902,2.9028,2.9015,2.9013,2.901,2.8991,2.8989,2.8999,2.8993,2.8982,2.9003,2.8985,2.8987,2.9006,2.9011,2.9015,2.9016,2.8957,0,0,0,0,0,2.9065,2.9067,2.9052,2.9063,2.9061,2.9045,2.9045,2.9034,2.9027,2.9024,2.9015,2.9009,2.901,2.901,2.901,2.9024,2.9021,2.9032,2.9037,2.904,2.9042,2.905,2.9054,2.9003,2.9003,2.9003,0,0,2.9082,2.9073,2.9075,2.9069,2.9064,2.9066,2.9043,2.9047,2.9049,2.9025,2.9032,2.9025,2.9017,2.9029,2.9033,2.9024,2.9056,2.9043,2.9046,2.9046,2.9052,2.9057,2.9061,2.9005,2.9004,2.9004,0,0,2.9114,2.9107,2.9116,2.9111,2.9102,2.9092,2.9094,2.9081,2.9076,2.9082,2.9064,2.9066,2.9067,2.9063,2.906,2.9091,2.9077,2.9092,2.9113,2.9121,2.9125,2.9128,2.9139,2.9143,2.9094,2.9094,2.9094,0,2.9136,2.9139,2.9122,2.9127,2.9126,2.9104,2.9113,2.9109,2.91,2.91,2.909,2.909,2.9084,2.9093,2.9101,2.91,2.9102,2.9093,2.9126,2.9129,2.9132,2.9142,2.9146,2.9096,2.9095,2.9095,2.9095,0,2.9167,2.9169,2.9178,2.917,2.9169,2.9176,2.9161,2.9162,2.9151,2.9142,2.9149,2.914,2.9137,2.9139,2.9128,2.9147,2.9142,2.9129,2.9111,2.9139,2.9148,2.9152,2.9098,2.9097,2.9097,2.9097,0,0,2.9217,2.92,2.9204,2.92,2.9189,2.9191,2.9198,2.9195,2.9196,2.9192,2.9196,2.9198,2.9186,2.9183,2.9172,2.9178,2.9203,2.9165,2.9164,2.9172,2.9224,2.9234,2.9239,2.9194,2.9195,2.9196,2.9225,0,2.9247,2.9256,2.9241,2.9254,2.9257,2.9236,2.9242,2.9236,2.9228,2.9229,2.9219,2.9221,2.9205,2.9203,2.9209,2.9199,2.9214,2.9197,2.9199,2.9199,2.9201,2.9244,2.9254,2.9282,2.9228,2.9229,2.9229,0,2.9282,2.9279,2.9292,2.9281,2.9281,2.9286,2.9283,2.9284,2.9277,2.9271,2.9268,2.9254,2.926,2.9243,2.925,2.9239,2.9239,2.9235,2.9236,2.9235,2.9216,2.9244,2.929,2.9295,2.9235,2.9235,2.9234,0,2.9317,2.9317,2.9324,2.9322,2.9309,2.9313,2.9308,2.93,2.9299,2.9297,2.9296,2.9294,2.9293,2.9291,2.9278,2.9266,2.9287,2.9269,2.9282,2.9282,2.9287,2.9287,2.9334,2.9287,2.9287,2.9287,2.9287,0,2.9352,2.9361,2.934,2.9345,2.9354,2.9338,2.9347,2.934,2.9334,2.9337,2.9319,2.9323,2.9305,2.9306,2.9296,2.9304,2.9303,2.9298,2.9295,2.93,2.93,2.9299,2.9297,2.9288,2.9288,2.9288,2.9288,0,2.9393,2.9379,2.9386,2.9374,2.9371,2.9378,2.9367,2.9371,2.9362,2.9366,2.9366,2.9352,2.9353,2.9339,2.9337,2.933,2.9343,2.9337,2.9345,2.9343,2.9357,2.9356,2.9405,2.9411,2.9361,2.9361,2.9362,0,2.9415,2.9422,2.9409,2.941,2.9406,2.9407,2.9407,2.9391,2.9391,2.9384,2.9389,2.9388,2.9387,2.9389,2.9379,2.9378,2.9371,2.9388,2.9371,2.9375,2.9371,2.9371,2.9372,2.9392,2.9393,2.9393,2.9394,0,2.9457,2.945,2.9449,2.9447,2.9447,2.9444,2.944,2.9442,2.9424,2.9425,2.9426,2.9425,2.9423,2.9423,2.942,2.9415,2.9401,2.9399,2.9402,2.9407,2.9411,2.9409,2.9355,2.9398,2.9398,2.9397,2.9397,2.9397,2.9489,2.9494,2.9486,2.9486,2.9482,2.9478,2.9482,2.9473,2.9473,2.947,2.9461,2.9463,2.9457,2.9451,2.9447,2.9449,2.9441,2.9445,2.9446,2.9447,2.945,2.9411,2.9448,2.9448,2.9448,2.9448,2.9448,0,2.953,2.9524,2.9524,2.9519,2.9519,2.9507,2.9502,2.9503,2.9505,2.95,2.9499,2.95,2.95,2.949,2.9489,2.9492,2.9486,2.9492,2.9492,2.9491,2.9458,2.9455,2.9497,2.9497,2.9497,2.9497,2.9497,2.9497,2.9551,2.9558,2.9551,2.9556,2.955,2.9552,2.955,2.9547,2.9543,2.9545,2.9545,2.9538,2.9531,2.9529,2.9528,2.9525,2.9525,2.9534,2.9529,2.9498,2.9493,2.9489,2.9486,2.9534,2.9534,2.9562,2.9562,2.9562]}]]